Wetterdaten: Sonntag, 17.02.2019
Datum Zeit Temp. A. Feuchte A. Luftdruck Regen Wind Richtung Richtung Sonnenschein UV Solar Windben
17.02.2019 00:00 3,1 C 84 % 1024,8 hPa 0,0 mm 0,0 km/h (0 Bft) N 0 0 min 0 UV-I 0 W/m 0,0 km/h (0 Bft)
17.02.2019 00:10 2,9 C 84 % 1024,7 hPa 0,0 mm 0,0 km/h (0 Bft) N 0 0 min 0 UV-I 0 W/m 0,0 km/h (0 Bft)
17.02.2019 00:20 2,8 C 85 % 1024,7 hPa 0,0 mm 0,0 km/h (0 Bft) N 0 0 min 0 UV-I 0 W/m 0,0 km/h (0 Bft)
17.02.2019 00:30 2,7 C 85 % 1024,7 hPa 0,0 mm 0,0 km/h (0 Bft) N 0 0 min 0 UV-I 0 W/m 0,0 km/h (0 Bft)
17.02.2019 00:40 2,6 C 85 % 1024,7 hPa 0,0 mm 0,0 km/h (0 Bft) N 0 0 min 0 UV-I 0 W/m 0,0 km/h (0 Bft)
17.02.2019 00:50 2,5 C 85 % 1024,7 hPa 0,0 mm 0,0 km/h (0 Bft) N 0 0 min 0 UV-I 0 W/m 0,0 km/h (0 Bft)
17.02.2019 01:00 2,4 C 85 % 1024,6 hPa 0,0 mm 0,0 km/h (0 Bft) N 0 0 min 0 UV-I 0 W/m 0,0 km/h (0 Bft)
17.02.2019 01:10 2,3 C 86 % 1024,6 hPa 0,0 mm 0,0 km/h (0 Bft) N 0 0 min 0 UV-I 0 W/m 0,0 km/h (0 Bft)
17.02.2019 01:20 2,2 C 86 % 1024,6 hPa 0,0 mm 0,0 km/h (0 Bft) N 0 0 min 0 UV-I 0 W/m 0,0 km/h (0 Bft)
17.02.2019 01:30 2,1 C 86 % 1024,6 hPa 0,0 mm 0,0 km/h (0 Bft) N 0 0 min 0 UV-I 0 W/m 0,0 km/h (0 Bft)
17.02.2019 01:40 1,9 C 86 % 1024,6 hPa 0,0 mm 0,0 km/h (0 Bft) N 0 0 min 0 UV-I 0 W/m 0,0 km/h (0 Bft)
17.02.2019 01:50 1,8 C 86 % 1024,5 hPa 0,0 mm 0,0 km/h (0 Bft) N 0 0 min 0 UV-I 0 W/m 0,0 km/h (0 Bft)
17.02.2019 02:00 1,6 C 86 % 1024,5 hPa 0,0 mm 0,0 km/h (0 Bft) N 0 0 min 0 UV-I 0 W/m 0,0 km/h (0 Bft)
17.02.2019 02:10 1,4 C 86 % 1024,4 hPa 0,0 mm 0,0 km/h (0 Bft) N 0 0 min 0 UV-I 0 W/m 0,0 km/h (0 Bft)
17.02.2019 02:20 1,3 C 86 % 1024,3 hPa 0,0 mm 0,0 km/h (0 Bft) N 0 0 min 0 UV-I 0 W/m 0,0 km/h (0 Bft)
17.02.2019 02:30 1,2 C 87 % 1024,2 hPa 0,0 mm 0,0 km/h (0 Bft) N 0 0 min 0 UV-I 0 W/m 0,0 km/h (0 Bft)
17.02.2019 02:40 1,1 C 87 % 1024,1 hPa 0,0 mm 0,0 km/h (0 Bft) N 0 0 min 0 UV-I 0 W/m 0,0 km/h (0 Bft)
17.02.2019 02:50 1,0 C 87 % 1024,0 hPa 0,0 mm 0,0 km/h (0 Bft) N 0 0 min 0 UV-I 0 W/m 0,0 km/h (0 Bft)
17.02.2019 03:00 0,8 C 87 % 1023,9 hPa 0,0 mm 0,0 km/h (0 Bft) N 0 0 min 0 UV-I 0 W/m 0,0 km/h (0 Bft)
17.02.2019 03:10 0,8 C 87 % 1023,8 hPa 0,0 mm 0,0 km/h (0 Bft) N 0 0 min 0 UV-I 0 W/m 0,0 km/h (0 Bft)
17.02.2019 03:20 0,7 C 87 % 1023,8 hPa 0,0 mm 0,0 km/h (0 Bft) N 0 0 min 0 UV-I 0 W/m 0,0 km/h (0 Bft)
17.02.2019 03:30 0,6 C 88 % 1023,8 hPa 0,0 mm 0,0 km/h (0 Bft) N 0 0 min 0 UV-I 0 W/m 0,0 km/h (0 Bft)
17.02.2019 03:40 0,5 C 88 % 1023,8 hPa 0,0 mm 0,0 km/h (0 Bft) N 0 0 min 0 UV-I 0 W/m 0,0 km/h (0 Bft)
17.02.2019 03:50 0,4 C 88 % 1023,8 hPa 0,0 mm 0,0 km/h (0 Bft) N 0 0 min 0 UV-I 0 W/m 0,0 km/h (0 Bft)
17.02.2019 04:00 0,4 C 88 % 1023,5 hPa 0,0 mm 0,0 km/h (0 Bft) N 0 0 min 0 UV-I 0 W/m 0,0 km/h (0 Bft)
17.02.2019 04:10 0,3 C 89 % 1023,4 hPa 0,0 mm 0,0 km/h (0 Bft) N 0 0 min 0 UV-I 0 W/m 0,0 km/h (0 Bft)
17.02.2019 04:20 0,3 C 89 % 1023,4 hPa 0,0 mm 0,0 km/h (0 Bft) N 0 0 min 0 UV-I 0 W/m 0,0 km/h (0 Bft)
17.02.2019 04:30 0,3 C 89 % 1023,4 hPa 0,0 mm 0,0 km/h (0 Bft) N 0 0 min 0 UV-I 0 W/m 0,0 km/h (0 Bft)
17.02.2019 04:40 0,2 C 89 % 1023,4 hPa 0,0 mm 0,0 km/h (0 Bft) N 0 0 min 0 UV-I 0 W/m 0,0 km/h (0 Bft)
17.02.2019 04:50 0,1 C 89 % 1023,4 hPa 0,0 mm 0,0 km/h (0 Bft) N 0 0 min 0 UV-I 0 W/m 0,0 km/h (0 Bft)
17.02.2019 05:00 0,0 C 89 % 1023,4 hPa 0,0 mm 0,0 km/h (0 Bft) N 0 0 min 0 UV-I 0 W/m 0,0 km/h (0 Bft)
17.02.2019 05:10 -0,1 C 89 % 1023,4 hPa 0,0 mm 0,0 km/h (0 Bft) N 0 0 min 0 UV-I 0 W/m 0,0 km/h (0 Bft)
17.02.2019 05:20 -0,2 C 89 % 1023,3 hPa 0,0 mm 0,0 km/h (0 Bft) N 0 0 min 0 UV-I 0 W/m 0,0 km/h (0 Bft)
17.02.2019 05:30 -0,3 C 89 % 1023,3 hPa 0,0 mm 0,0 km/h (0 Bft) N 0 0 min 0 UV-I 0 W/m 0,0 km/h (0 Bft)
17.02.2019 05:40 -0,3 C 89 % 1023,2 hPa 0,0 mm 0,0 km/h (0 Bft) N 0 0 min 0 UV-I 0 W/m 0,0 km/h (0 Bft)
17.02.2019 05:50 -0,3 C 89 % 1023,2 hPa 0,0 mm 0,0 km/h (0 Bft) N 0 0 min 0 UV-I 0 W/m 0,0 km/h (0 Bft)
17.02.2019 06:00 -0,4 C 89 % 1023,1 hPa 0,0 mm 0,0 km/h (0 Bft) N 0 0 min 0 UV-I 0 W/m 0,0 km/h (0 Bft)
17.02.2019 06:10 -0,4 C 89 % 1023,2 hPa 0,0 mm 0,0 km/h (0 Bft) N 0 0 min 0 UV-I 0 W/m 0,0 km/h (0 Bft)
17.02.2019 06:20 -0,5 C 89 % 1023,2 hPa 0,0 mm 0,0 km/h (0 Bft) N 0 0 min 0 UV-I 0 W/m 0,0 km/h (0 Bft)
17.02.2019 06:30 -0,6 C 89 % 1023,2 hPa 0,0 mm 0,0 km/h (0 Bft) N 0 0 min 0 UV-I 0 W/m 0,0 km/h (0 Bft)
17.02.2019 06:40 -0,6 C 90 % 1023,1 hPa 0,0 mm 0,0 km/h (0 Bft) N 0 0 min 0 UV-I 0 W/m 0,0 km/h (0 Bft)
17.02.2019 06:50 -0,7 C 90 % 1023,0 hPa 0,0 mm 0,0 km/h (0 Bft) N 0 0 min 0 UV-I 0 W/m 0,0 km/h (0 Bft)
17.02.2019 07:00 -0,8 C 90 % 1022,9 hPa 0,0 mm 0,0 km/h (0 Bft) N 0 0 min 0 UV-I 0 W/m 0,0 km/h (0 Bft)
17.02.2019 07:10 -0,8 C 90 % 1023,0 hPa 0,0 mm 0,0 km/h (0 Bft) N 0 0 min 0 UV-I 0 W/m 0,0 km/h (0 Bft)
17.02.2019 07:20 -0,8 C 90 % 1023,1 hPa 0,0 mm 0,0 km/h (0 Bft) N 0 0 min 0 UV-I 0 W/m 0,0 km/h (0 Bft)
17.02.2019 07:30 -0,8 C 90 % 1023,0 hPa 0,0 mm 0,0 km/h (0 Bft) N 0 0 min 0 UV-I 0 W/m 0,0 km/h (0 Bft)
17.02.2019 07:40 -0,9 C 90 % 1022,9 hPa 0,0 mm 0,0 km/h (0 Bft) N 0 0 min 0 UV-I 0 W/m 0,0 km/h (0 Bft)
17.02.2019 07:50 -0,9 C 90 % 1023,0 hPa 0,0 mm 0,0 km/h (0 Bft) N 0 0 min 0 UV-I 8 W/m 0,0 km/h (0 Bft)
17.02.2019 08:00 -0,9 C 90 % 1023,1 hPa 0,0 mm 0,0 km/h (0 Bft) N 0 0 min 0 UV-I 16 W/m 0,0 km/h (0 Bft)
17.02.2019 08:10 -0,8 C 90 % 1023,0 hPa 0,0 mm 0,0 km/h (0 Bft) N 0 0 min 0 UV-I 27 W/m 0,0 km/h (0 Bft)
17.02.2019 08:20 -0,8 C 91 % 1023,0 hPa 0,0 mm 0,0 km/h (0 Bft) N 0 0 min 0 UV-I 37 W/m 0,0 km/h (0 Bft)
17.02.2019 08:30 -0,6 C 91 % 1023,0 hPa 0,0 mm 0,0 km/h (0 Bft) N 0 0 min 0 UV-I 47 W/m 0,0 km/h (0 Bft)
17.02.2019 08:40 -0,4 C 91 % 1022,9 hPa 0,0 mm 0,0 km/h (0 Bft) N 0 0 min 0 UV-I 53 W/m 0,0 km/h (0 Bft)
17.02.2019 08:50 -0,1 C 91 % 1022,9 hPa 0,0 mm 0,0 km/h (0 Bft) N 0 0 min 0 UV-I 65 W/m 0,0 km/h (0 Bft)
17.02.2019 09:00 0,3 C 92 % 1022,9 hPa 0,0 mm 0,0 km/h (0 Bft) N 0 10 min 0 UV-I 106 W/m 0,0 km/h (0 Bft)
17.02.2019 09:10 1,1 C 92 % 1022,9 hPa 0,0 mm 0,0 km/h (0 Bft) N 0 10 min 0 UV-I 143 W/m 0,0 km/h (0 Bft)
17.02.2019 09:20 2,5 C 92 % 1022,9 hPa 0,0 mm 0,0 km/h (0 Bft) N 0 10 min 1 UV-I 170 W/m 0,0 km/h (0 Bft)
17.02.2019 09:30 3,8 C 92 % 1022,8 hPa 0,0 mm 0,0 km/h (0 Bft) N 0 10 min 1 UV-I 177 W/m 0,0 km/h (0 Bft)
17.02.2019 09:40 5,1 C 89 % 1022,8 hPa 0,0 mm 0,0 km/h (0 Bft) N 0 10 min 1 UV-I 181 W/m 0,0 km/h (0 Bft)
17.02.2019 09:50 6,2 C 82 % 1022,7 hPa 0,0 mm 0,0 km/h (0 Bft) N 0 10 min 1 UV-I 192 W/m 0,0 km/h (0 Bft)
17.02.2019 10:00 7,1 C 79 % 1022,7 hPa 0,0 mm 0,0 km/h (0 Bft) N 0 10 min 1 UV-I 185 W/m 0,0 km/h (0 Bft)
17.02.2019 10:10 8,0 C 74 % 1022,7 hPa 0,0 mm 0,0 km/h (0 Bft) N 0 10 min 1 UV-I 254 W/m 0,0 km/h (0 Bft)
17.02.2019 10:20 8,9 C 71 % 1022,6 hPa 0,0 mm 0,0 km/h (0 Bft) N 0 10 min 1 UV-I 251 W/m 0,0 km/h (0 Bft)
17.02.2019 10:30 9,4 C 70 % 1022,6 hPa 0,0 mm 0,0 km/h (0 Bft) N 0 10 min 1 UV-I 294 W/m 0,0 km/h (0 Bft)
17.02.2019 10:40 10,1 C 66 % 1022,5 hPa 0,0 mm 0,0 km/h (0 Bft) N 0 10 min 1 UV-I 308 W/m 0,0 km/h (0 Bft)
17.02.2019 10:50 10,7 C 65 % 1022,5 hPa 0,0 mm 0,0 km/h (0 Bft) N 0 10 min 1 UV-I 275 W/m 0,0 km/h (0 Bft)
17.02.2019 11:00 11,2 C 63 % 1022,3 hPa 0,0 mm 0,0 km/h (0 Bft) N 0 10 min 1 UV-I 331 W/m 0,0 km/h (0 Bft)
17.02.2019 11:10 11,4 C 62 % 1022,3 hPa 0,0 mm 0,0 km/h (0 Bft) N 0 10 min 1 UV-I 341 W/m 0,0 km/h (0 Bft)
17.02.2019 11:20 11,8 C 62 % 1022,2 hPa 0,0 mm 0,0 km/h (0 Bft) NW 307 10 min 2 UV-I 327 W/m 1,6 km/h (1 Bft)
17.02.2019 11:30 12,3 C 60 % 1022,1 hPa 0,0 mm 1,2 km/h (1 Bft) NW 307 10 min 1 UV-I 319 W/m 6,4 km/h (2 Bft)
17.02.2019 11:40 12,7 C 59 % 1021,9 hPa 0,0 mm 0,7 km/h (0 Bft) NW 307 10 min 2 UV-I 372 W/m 8,0 km/h (2 Bft)
17.02.2019 11:50 13,3 C 58 % 1021,8 hPa 0,0 mm 0,2 km/h (0 Bft) NW 307 10 min 2 UV-I 447 W/m 8,0 km/h (2 Bft)
17.02.2019 12:00 13,6 C 58 % 1021,7 hPa 0,0 mm 3,3 km/h (1 Bft) N-NO 21 10 min 2 UV-I 473 W/m 9,7 km/h (2 Bft)
17.02.2019 12:10 13,8 C 56 % 1021,6 hPa 0,0 mm 2,7 km/h (1 Bft) O 96 10 min 2 UV-I 475 W/m 11,3 km/h (2 Bft)
17.02.2019 12:20 14,2 C 56 % 1021,4 hPa 0,0 mm 0,4 km/h (0 Bft) O-SO 107 10 min 2 UV-I 484 W/m 11,3 km/h (2 Bft)
17.02.2019 12:30 14,3 C 56 % 1021,3 hPa 0,0 mm 1,5 km/h (1 Bft) O-SO 108 10 min 2 UV-I 440 W/m 11,3 km/h (2 Bft)
17.02.2019 12:40 14,2 C 56 % 1021,3 hPa 0,0 mm 3,7 km/h (1 Bft) O-SO 108 10 min 2 UV-I 436 W/m 11,3 km/h (2 Bft)
17.02.2019 12:50 14,1 C 55 % 1021,1 hPa 0,0 mm 3,5 km/h (1 Bft) O-SO 108 10 min 2 UV-I 461 W/m 11,3 km/h (2 Bft)
17.02.2019 13:00 14,3 C 56 % 1021,1 hPa 0,0 mm 4,8 km/h (1 Bft) O-SO 109 10 min 2 UV-I 473 W/m 11,3 km/h (2 Bft)
17.02.2019 13:10 14,4 C 54 % 1021,0 hPa 0,0 mm 3,3 km/h (1 Bft) O-SO 109 10 min 2 UV-I 472 W/m 11,3 km/h (2 Bft)
17.02.2019 13:20 14,7 C 54 % 1020,9 hPa 0,0 mm 3,1 km/h (1 Bft) O-SO 109 10 min 2 UV-I 455 W/m 14,5 km/h (3 Bft)
17.02.2019 13:30 14,9 C 53 % 1020,8 hPa 0,0 mm 2,1 km/h (1 Bft) O-SO 110 10 min 1 UV-I 432 W/m 14,5 km/h (3 Bft)
17.02.2019 13:40 14,9 C 53 % 1020,7 hPa 0,0 mm 3,3 km/h (1 Bft) O-SO 109 10 min 1 UV-I 432 W/m 11,3 km/h (2 Bft)
17.02.2019 13:50 15,0 C 52 % 1020,5 hPa 0,0 mm 4,2 km/h (1 Bft) O-SO 109 10 min 2 UV-I 454 W/m 11,3 km/h (2 Bft)
17.02.2019 14:00 15,1 C 51 % 1020,4 hPa 0,0 mm 3,0 km/h (1 Bft) O-SO 109 10 min 1 UV-I 414 W/m 11,3 km/h (2 Bft)
17.02.2019 14:10 15,3 C 51 % 1020,3 hPa 0,0 mm 4,3 km/h (1 Bft) O-SO 110 10 min 1 UV-I 393 W/m 14,5 km/h (3 Bft)
17.02.2019 14:20 15,2 C 52 % 1020,2 hPa 0,0 mm 4,1 km/h (1 Bft) O-SO 109 10 min 1 UV-I 386 W/m 14,5 km/h (3 Bft)
17.02.2019 14:30 15,2 C 52 % 1020,1 hPa 0,0 mm 2,7 km/h (1 Bft) O-SO 107 10 min 1 UV-I 372 W/m 11,3 km/h (2 Bft)
17.02.2019 14:40 15,4 C 52 % 1020,0 hPa 0,0 mm 1,8 km/h (1 Bft) O-SO 107 10 min 1 UV-I 348 W/m 11,3 km/h (2 Bft)
17.02.2019 14:50 15,6 C 52 % 1020,0 hPa 0,0 mm 1,0 km/h (0 Bft) O-SO 109 10 min 1 UV-I 311 W/m 12,9 km/h (3 Bft)
17.02.2019 15:00 15,5 C 52 % 1019,9 hPa 0,0 mm 0,4 km/h (0 Bft) O-SO 109 10 min 1 UV-I 289 W/m 12,9 km/h (3 Bft)
17.02.2019 15:10 15,5 C 52 % 1019,9 hPa 0,0 mm 1,4 km/h (1 Bft) O-SO 109 10 min 1 UV-I 292 W/m 8,0 km/h (2 Bft)
17.02.2019 15:20 15,6 C 52 % 1019,7 hPa 0,0 mm 0,0 km/h (0 Bft) N 0 10 min 1 UV-I 266 W/m 8,0 km/h (2 Bft)
17.02.2019 15:30 15,7 C 52 % 1019,6 hPa 0,0 mm 0,4 km/h (0 Bft) O-SO 110 10 min 1 UV-I 229 W/m 6,4 km/h (2 Bft)
17.02.2019 15:40 15,4 C 51 % 1019,6 hPa 0,0 mm 0,6 km/h (0 Bft) O-SO 110 10 min 1 UV-I 195 W/m 8,0 km/h (2 Bft)
17.02.2019 15:50 15,4 C 50 % 1019,6 hPa 0,0 mm 0,5 km/h (0 Bft) O-SO 110 10 min 1 UV-I 191 W/m 8,0 km/h (2 Bft)
17.02.2019 16:00 15,4 C 50 % 1019,6 hPa 0,0 mm 1,4 km/h (1 Bft) O-SO 113 10 min 1 UV-I 182 W/m 9,7 km/h (2 Bft)
17.02.2019 16:10 15,2 C 50 % 1019,5 hPa 0,0 mm 0,4 km/h (0 Bft) O-SO 116 10 min 1 UV-I 182 W/m 9,7 km/h (2 Bft)
17.02.2019 16:20 15,0 C 51 % 1019,5 hPa 0,0 mm 0,3 km/h (0 Bft) O-SO 116 10 min 0 UV-I 158 W/m 8,0 km/h (2 Bft)
17.02.2019 16:30 15,0 C 51 % 1019,4 hPa 0,0 mm 0,3 km/h (0 Bft) O-SO 116 10 min 0 UV-I 128 W/m 8,0 km/h (2 Bft)
17.02.2019 16:40 15,0 C 51 % 1019,5 hPa 0,0 mm 0,1 km/h (0 Bft) O-SO 115 10 min 0 UV-I 98 W/m 6,4 km/h (2 Bft)
17.02.2019 16:50 15,0 C 51 % 1019,4 hPa 0,0 mm 0,7 km/h (0 Bft) O-SO 115 10 min 0 UV-I 84 W/m 11,3 km/h (2 Bft)
17.02.2019 17:00 14,8 C 51 % 1019,3 hPa 0,0 mm 0,4 km/h (0 Bft) O-SO 117 10 min 0 UV-I 64 W/m 11,3 km/h (2 Bft)
17.02.2019 17:10 14,6 C 51 % 1019,3 hPa 0,0 mm 0,3 km/h (0 Bft) O-SO 117 10 min 0 UV-I 50 W/m 8,0 km/h (2 Bft)
17.02.2019 17:20 14,3 C 52 % 1019,3 hPa 0,0 mm 0,0 km/h (0 Bft) N 0 10 min 0 UV-I 33 W/m 6,4 km/h (2 Bft)
17.02.2019 17:30 14,0 C 53 % 1019,3 hPa 0,0 mm 0,0 km/h (0 Bft) N 0 10 min 0 UV-I 20 W/m 0,0 km/h (0 Bft)
17.02.2019 17:40 13,7 C 54 % 1019,3 hPa 0,0 mm 0,1 km/h (0 Bft) O-SO 117 0 min 0 UV-I 9 W/m 4,8 km/h (1 Bft)
17.02.2019 17:50 13,3 C 54 % 1019,3 hPa 0,0 mm 0,0 km/h (0 Bft) N 0 0 min 0 UV-I 0 W/m 0,0 km/h (0 Bft)
17.02.2019 18:00 12,9 C 55 % 1019,4 hPa 0,0 mm 0,1 km/h (0 Bft) O-SO 117 0 min 0 UV-I 0 W/m 4,8 km/h (1 Bft)
17.02.2019 18:10 12,4 C 57 % 1019,5 hPa 0,0 mm 0,1 km/h (0 Bft) O-SO 117 0 min 0 UV-I 0 W/m 4,8 km/h (1 Bft)
17.02.2019 18:20 12,0 C 58 % 1019,5 hPa 0,0 mm 0,4 km/h (0 Bft) O-SO 117 0 min 0 UV-I 0 W/m 6,4 km/h (2 Bft)
17.02.2019 18:30 11,6 C 59 % 1019,4 hPa 0,0 mm 0,0 km/h (0 Bft) N 0 0 min 0 UV-I 0 W/m 6,4 km/h (2 Bft)
17.02.2019 18:40 11,2 C 60 % 1019,6 hPa 0,0 mm 0,0 km/h (0 Bft) N 0 0 min 0 UV-I 0 W/m 0,0 km/h (0 Bft)
17.02.2019 18:50 10,9 C 61 % 1019,5 hPa 0,0 mm 0,0 km/h (0 Bft) N 0 0 min 0 UV-I 0 W/m 0,0 km/h (0 Bft)
17.02.2019 19:00 10,6 C 62 % 1019,3 hPa 0,0 mm 0,0 km/h (0 Bft) N 0 0 min 0 UV-I 0 W/m 0,0 km/h (0 Bft)
17.02.2019 19:10 10,3 C 62 % 1019,5 hPa 0,0 mm 0,0 km/h (0 Bft) N 0 0 min 0 UV-I 0 W/m 0,0 km/h (0 Bft)
17.02.2019 19:20 9,9 C 64 % 1019,5 hPa 0,0 mm 0,0 km/h (0 Bft) N 0 0 min 0 UV-I 0 W/m 0,0 km/h (0 Bft)
17.02.2019 19:30 9,6 C 65 % 1019,4 hPa 0,0 mm 0,0 km/h (0 Bft) N 0 0 min 0 UV-I 0 W/m 0,0 km/h (0 Bft)
17.02.2019 19:40 9,3 C 66 % 1019,5 hPa 0,0 mm 0,2 km/h (0 Bft) O-SO 117 0 min 0 UV-I 0 W/m 3,2 km/h (1 Bft)
17.02.2019 19:50 9,0 C 66 % 1019,6 hPa 0,0 mm 0,0 km/h (0 Bft) N 0 0 min 0 UV-I 0 W/m 3,2 km/h (1 Bft)
17.02.2019 20:00 8,8 C 67 % 1019,6 hPa 0,0 mm 0,0 km/h (0 Bft) N 0 0 min 0 UV-I 0 W/m 0,0 km/h (0 Bft)
17.02.2019 20:10 8,6 C 68 % 1019,8 hPa 0,0 mm 0,0 km/h (0 Bft) N 0 0 min 0 UV-I 0 W/m 0,0 km/h (0 Bft)
17.02.2019 20:20 8,3 C 68 % 1019,8 hPa 0,0 mm 0,0 km/h (0 Bft) N 0 0 min 0 UV-I 0 W/m 0,0 km/h (0 Bft)
17.02.2019 20:30 8,1 C 69 % 1019,9 hPa 0,0 mm 0,0 km/h (0 Bft) N 0 0 min 0 UV-I 0 W/m 0,0 km/h (0 Bft)
17.02.2019 20:40 7,8 C 70 % 1020,0 hPa 0,0 mm 0,0 km/h (0 Bft) N 0 0 min 0 UV-I 0 W/m 0,0 km/h (0 Bft)
17.02.2019 20:50 7,6 C 70 % 1019,8 hPa 0,0 mm 0,0 km/h (0 Bft) N 0 0 min 0 UV-I 0 W/m 0,0 km/h (0 Bft)
17.02.2019 21:00 7,2 C 70 % 1019,9 hPa 0,0 mm 0,0 km/h (0 Bft) N 0 0 min 0 UV-I 0 W/m 0,0 km/h (0 Bft)
17.02.2019 21:10 6,9 C 72 % 1020,1 hPa 0,0 mm 0,0 km/h (0 Bft) N 0 0 min 0 UV-I 0 W/m 0,0 km/h (0 Bft)
17.02.2019 21:20 6,7 C 72 % 1020,1 hPa 0,0 mm 0,0 km/h (0 Bft) N 0 0 min 0 UV-I 0 W/m 0,0 km/h (0 Bft)
17.02.2019 21:30 6,3 C 73 % 1020,0 hPa 0,0 mm 0,0 km/h (0 Bft) N 0 0 min 0 UV-I 0 W/m 0,0 km/h (0 Bft)
17.02.2019 21:40 6,1 C 74 % 1020,2 hPa 0,0 mm 0,0 km/h (0 Bft) N 0 0 min 0 UV-I 0 W/m 0,0 km/h (0 Bft)
17.02.2019 21:50 5,8 C 75 % 1020,3 hPa 0,0 mm 0,0 km/h (0 Bft) N 0 0 min 0 UV-I 0 W/m 0,0 km/h (0 Bft)
17.02.2019 22:00 5,6 C 76 % 1020,3 hPa 0,0 mm 0,0 km/h (0 Bft) N 0 0 min 0 UV-I 0 W/m 0,0 km/h (0 Bft)
17.02.2019 22:10 5,4 C 76 % 1020,3 hPa 0,0 mm 0,0 km/h (0 Bft) N 0 0 min 0 UV-I 0 W/m 0,0 km/h (0 Bft)
17.02.2019 22:20 5,2 C 77 % 1020,1 hPa 0,0 mm 0,0 km/h (0 Bft) N 0 0 min 0 UV-I 0 W/m 0,0 km/h (0 Bft)
17.02.2019 22:30 5,1 C 77 % 1019,9 hPa 0,0 mm 0,0 km/h (0 Bft) N 0 0 min 0 UV-I 0 W/m 0,0 km/h (0 Bft)
17.02.2019 22:40 5,0 C 77 % 1020,0 hPa 0,0 mm 0,0 km/h (0 Bft) N 0 0 min 0 UV-I 0 W/m 0,0 km/h (0 Bft)
17.02.2019 22:50 4,9 C 78 % 1020,2 hPa 0,0 mm 0,0 km/h (0 Bft) N 0 0 min 0 UV-I 0 W/m 0,0 km/h (0 Bft)
17.02.2019 23:00 4,7 C 78 % 1020,0 hPa 0,0 mm 0,0 km/h (0 Bft) N 0 0 min 0 UV-I 0 W/m 0,0 km/h (0 Bft)
17.02.2019 23:10 4,6 C 77 % 1020,0 hPa 0,0 mm 0,0 km/h (0 Bft) N 0 0 min 0 UV-I 0 W/m 0,0 km/h (0 Bft)
17.02.2019 23:20 4,4 C 78 % 1020,0 hPa 0,0 mm 0,0 km/h (0 Bft) N 0 0 min 0 UV-I 0 W/m 0,0 km/h (0 Bft)
17.02.2019 23:30 4,2 C 78 % 1020,0 hPa 0,0 mm 0,0 km/h (0 Bft) N 0 0 min 0 UV-I 0 W/m 0,0 km/h (0 Bft)
17.02.2019 23:40 4,0 C 78 % 1020,1 hPa 0,0 mm 0,0 km/h (0 Bft) N 0 0 min 0 UV-I 0 W/m 0,0 km/h (0 Bft)
17.02.2019 23:50 3,8 C 78 % 1020,0 hPa 0,0 mm 0,0 km/h (0 Bft) N 0 0 min 0 UV-I 0 W/m 0,0 km/h (0 Bft)
_ Min-Zeit 07:40 15:50 17:00 - 00:00 - - - - - 00:00
Minimum _ -0,9 C 50 % 1019,3 hPa - 0,0 km/h (0 Bft) - - - - - 0,0 km/h (0 Bft)
_ Max-Zeit 15:30 09:00 00:00 00:00 13:00 - - 09:00 11:50 12:20 13:20
Maximum _ 15,7 C 92 % 1024,8 hPa 0,0 mm 4,8 km/h
O-SO (1 Bft)
- - 10 min 2 UV-I 484 W/m 14,5 km/h
O-SO (3 Bft)
Durchschnitt _ 6,8 C 73 % 1021,7 hPa #0,0 mm 0,4 km/h (0 Bft) O-SO - #8:40 h 1 UV-I 252 W/m 2,8 km/h (1 Bft)